sat.trackr.live / text

‹ back to catalog

HULIANWANG DIGUI-27

NORAD 63694 · 2025-086H

PAYLOAD ACTIVE UNKNOWN

§ Identity

Operator
Country
PRC
Launch date
2025-04-28
Launch site
WSC
Launch vehicle
Mass (kg)
RCS (m²)

External: N2YO · Heavens-Above · Gunter

§ Orbital elements

Epoch: 2026-09-21T22:19:42.176928Z

Period
108.73 min
Inclination
86.4972°
Eccentricity
0.0001813
Mean motion
13.24413154 rev/d
Perigee alt
1,166.5 km
Apogee alt
1,169.3 km
Semi-major
7,546.0 km
B*
-3.6787e-4
RAAN
280.4711°
Arg perigee
77.2367°
Mean anomaly
282.8969°
Rev number
6,766

§ Raw data

HULIANWANG DIGUI-271 63694U 25086H   26264.93034927 -.00000143  00000+0 -36787-3 0  99992 63694  86.4972 280.4711 0001813  77.2367 282.8969 13.24413154 67661

JSON: /api/v1/satellites/63694 · /tle

For live sub-satellite position, see the globe view (requires WebGL).

§ Visibility from observer

Set your observer location to see the next 7 days of passes ≥ 10°. The values pass through the URL so the page stays shareable.

No JS? Fill the form by hand. The geolocation button needs JavaScript.